Regional Weather Roundup
Issued by NWS

Home | Current Version | Previous Version | Graphics & Text | Print | Product List | Glossary On
Versions: 1 2 3 4 5 6 7 8 9 10 11 12 13 14 15 16 17 18 19 20 21 22 23 24 25 26 27 28 29 30 31 32 33 34 35 36 37 38 39 40 41 42 43 44 45 46 47 48 49 50
000
ASUS43 KLOT 201106
RWRIL

ILLINOIS REGIONAL WEATHER ROUNDUP
NATIONAL WEATHER SERVICE CHICAGO/ROMEOVILLE IL
600 AM CDT WED AUG 20 2014

NOTE: "FAIR" INDICATES FEW OR NO CLOUDS BELOW 12,000 FEET WITH NO
SIGNIFICANT WEATHER AND/OR OBSTRUCTIONS TO VISIBILITY.

* THESE STATIONS ARE NOT UNDER NWS QUALITY CONTROL. THEY ALSO MAY NOT
  REPORT WEATHER SUCH AS PRECIPITATION OR FOG.

ILZ001-002-007-009-015-016-024-201200-
NORTHWEST ILLINOIS

CITY           SKY/WX    TMP DP  RH WIND       PRES   REMARKS
MOLINE         CLEAR     61  59  93 SW3       29.85R
STERLING*      CLEAR     61  59  94 CALM      29.85R
SAVANNA*       CLEAR     62  60  93 CALM      29.84R FOG
$$

ILZ003-004-008-010-011-017-018-201200-
NORTH CENTRAL ILLINOIS

CITY           SKY/WX    TMP DP  RH WIND       PRES   REMARKS
ROCKFORD       CLOUDY    62  59  90 CALM      29.86R
FREEPORT*      CLEAR     60  58  94 CALM      29.86R
ROCHELLE*      CLEAR     59  57  95 CALM      29.85R
DE KALB*       CLEAR     62  60  91 NW6       29.85R
PERU*          CLEAR     64  62  94 SW3       29.85S
$$

ILZ005-006-012>014-019>023-201200-
NORTHEAST ILLINOIS

CITY           SKY/WX    TMP DP  RH WIND       PRES   REMARKS
CHICAGO-OHARE  PTCLDY    66  60  81 W7        29.83R
CHICAGO-MIDWAY PTCLDY    69  64  84 W5        29.83R
AURORA         CLEAR     59  57  93 NW3       29.84S FOG
LANSING*       CLEAR     64  63  96 SW3       29.84S
JOLIET*        FOG       61  60  96 CALM      29.85R VSB 3/4
WAUKEGAN       CLEAR     62  60  93 CALM      29.82S
DUPAGE AIRPORT CLEAR     63  61  93 CALM      29.83S
KANKAKEE*      FOG       61  60  99 CALM      29.86R VSB 1/4
WHEELING       CLEAR     67  62  84 CALM      29.84S
MORRIS*        CLEAR     62  62 100 CALM      29.84R FOG
ROMEOVILLE*    CLEAR     61  61  99 SW3       29.84R
NORTHERLY ISL    N/A     71  62  73 SW5         N/A
$$

LMZ740>746-201200-
SOUTHERN LAKE MICHIGAN

STATION/POSITION SKY/WX   TEMP    WIND        PRES    VSBY  WAVE
                          AIR SEA DIR/SP/G                  HT/PER
                          (F)     (DEG/KT/KT) (MB)    (MI)  (FT/S)
SOUTHERN BUOY              68 66  280/  8/ 10 1009.6R         1
WAUKEGAN HARBOR            67      CALM  /  5   N/A
HARRISON CRIB              70     280/  7/  8   N/A
BURNHAM HARBOR             71     280/  6/  8   N/A
CALUMET HARBOR             69     220/  3/  5 1009.0R
BURNS HARBOR               71     240/  4/  7   N/A
MICHIGAN CITY              71     220/ 10/ 13   N/A
MICHIGAN CITY 6N           70 70  250/  6/  8   N/A           1/ 2
ST. JOSEPH                 70 70  260/  8/ 10   N/A           1/ 3
$$

ILZ025>027-034>036-040-047-049-050-058-095>099-201200-
WEST-CENTRAL ILLINOIS

CITY           SKY/WX    TMP DP  RH WIND       PRES   REMARKS
QUINCY         CLOUDY    73  71  93 SE3       29.85F
GALESBURG*     CLEAR     62  62  99 CALM      29.86S
MACOMB*        PTCLDY    63  63 100 CALM      29.86F FOG
JACKSONVILLE*  CLOUDY    70  69  97 CALM      29.88S FOG
PITTSFIELD*    TSTM      73  70  91 CALM      29.88S
$$

ILZ028>032-037-038-041>044-048-051>054-059>061-201200-
CENTRAL ILLINOIS

CITY           SKY/WX    TMP DP  RH WIND       PRES   REMARKS
PONTIAC        FOG       61  61 100 CALM      29.85S VSB 1/2
DECATUR        CLEAR     68  67  96 SW5       29.89R
PEORIA         CLEAR     66  62  87 SW3       29.88R
LACON*         FOG       62  61  96 CALM      29.86R VSB 3/4
LINCOLN*       MOCLDY    65  64  97 CALM      29.86R FOG
SPRINGFIELD    PTCLDY    69  67  93 CALM      29.87S FOG
TAYLORVILLE    MOCLDY    68  68 100 CALM      29.88S FOG
$$

ILZ033-039-045-046-055>057-062-063-201200-
EAST-CENTRAL ILLINOIS

CITY           SKY/WX    TMP DP  RH WIND       PRES   REMARKS
CHAMPAIGN      FOG       62  62 100 CALM      29.88R VSB 1/4
DANVILLE*      FOG       62  62 100 SW3       29.85R VSB 1/2
RANTOUL*       CLEAR     66  64  92 CALM      29.88R
MATTOON        PTCLDY    72  70  93 SW6       29.88R
PARIS*           N/A     65  65 100 CALM      29.89R FOG
$$

ILZ079-100>102-201200-
SOUTHWEST ILLINOIS

CITY           SKY/WX    TMP DP  RH WIND       PRES   REMARKS
ALTON          MOCLDY    69  69 100 CALM      29.88S FOG
BELLEVILLE     CLEAR     69  69 100 NE1       29.86S FOG
CAHOKIA*       PTCLDY    71  70  96 S5        29.87R
SPARTA*        CLEAR     71  69  94 SW3       29.90R
$$

ILZ064>066-069>071-074>076-080>082-084>086-088>090-092>094-201200-
SOUTH-CENTRAL ILLINOIS

CITY           SKY/WX    TMP DP  RH WIND       PRES   REMARKS
CARBONDALE     CLEAR     67  66  97 CALM      29.88R
CAIRO*           N/A     77  74  90 CALM      29.89R
MARION         CLEAR     68  68 100 CALM      29.89R FOG
MT. VERNON     CLEAR     66  63  88 CALM      29.89R
CENTRALIA*     CLEAR     66  65  94 CALM      29.88S FOG
SALEM*         CLEAR     70  69  98 CALM      29.89R FOG
$$

ILZ067-068-072-073-078-083-087-091-201200-
SOUTHEAST ILLINOIS

CITY           SKY/WX    TMP DP  RH WIND       PRES   REMARKS
LAWRENCEVILLE  PTCLDY    69  68  96 S3        29.90R FOG
FLORA*         CLEAR     65  65  99 CALM      29.90R FOG
FAIRFIELD*     CLEAR     68  66  94 MISG      29.88S
HARRISBURG*    CLEAR     67  67 100 CALM      29.90R
ROBINSON*      FOG       69  69  98 CALM      29.90R VSB 1/2
CARMI*         CLEAR     68  68 100 CALM      29.89R
$$

ABBREVIATIONS USED IN REMARKS
   TC - TEMPERATURE IN CELSIUS
  WCI - WIND CHILL INDEX
   HX - HEAT INDEX
  VSB - VISIBILITY
$$



USA.gov is the U.S. government's official web portal to all federal, state and local government web resources and services.